Time,TemperatureF,DewpointF,PressureIn,WindDirection,WindDirectionDegrees,WindSpeedMPH,WindSpeedGustMPH,Humidity,HourlyPrecipIn,Conditions,Clouds,dailyrainin,SoftwareType,DateUTC
2014-08-30 00:00:00,67.0,64.0,29.97,SE,127,1.0,1.0,90,0.00,,,0.00,Wunderground v.1.15,2014-08-30 04:00:00,
2014-08-30 00:02:00,67.0,64.0,29.97,SE,127,1.0,1.0,90,0.00,,,0.00,Wunderground v.1.15,2014-08-30 04:02:00,
2014-08-30 00:04:00,67.0,64.0,29.97,SE,127,1.0,1.0,90,0.00,,,0.00,Wunderground v.1.15,2014-08-30 04:04:00,
2014-08-30 00:08:00,66.9,63.9,29.97,SE,127,1.0,1.0,90,0.00,,,0.00,Wunderground v.1.15,2014-08-30 04:08:00,
2014-08-30 00:10:00,66.9,63.9,29.97,SE,127,1.0,1.0,90,0.00,,,0.00,Wunderground v.1.15,2014-08-30 04:10:00,
2014-08-30 00:12:00,66.9,63.9,29.98,SE,127,1.0,1.0,90,0.00,,,0.00,Wunderground v.1.15,2014-08-30 04:12:00,
2014-08-30 00:13:00,66.8,64.0,29.98,SE,127,0.0,4.0,90,0.00,,,0.00,weatherlink.com 1.10,2014-08-30 04:13:00,
2014-08-30 00:16:00,66.8,63.8,29.98,SE,127,0.0,1.0,90,0.00,,,0.00,Wunderground v.1.15,2014-08-30 04:16:00,
2014-08-30 00:18:00,66.7,63.7,29.98,SE,127,0.0,1.0,90,0.00,,,0.00,Wunderground v.1.15,2014-08-30 04:18:00,
2014-08-30 00:20:00,66.7,63.7,29.98,SE,127,0.0,0.0,90,0.00,,,0.00,Wunderground v.1.15,2014-08-30 04:20:00,
2014-08-30 00:22:00,66.7,63.7,29.98,SE,127,0.0,0.0,90,0.00,,,0.00,Wunderground v.1.15,2014-08-30 04:22:00,
2014-08-30 00:24:00,66.7,64.0,29.98,SE,127,0.0,0.0,91,0.00,,,0.00,Wunderground v.1.15,2014-08-30 04:24:00,
2014-08-30 00:26:00,66.7,64.0,29.98,SE,127,0.0,1.0,91,0.00,,,0.00,Wunderground v.1.15,2014-08-30 04:26:00,
2014-08-30 00:28:00,66.7,64.0,29.97,SE,127,0.0,1.0,91,0.00,,,0.00,Wunderground v.1.15,2014-08-30 04:28:00,
2014-08-30 00:30:00,66.7,64.0,29.97,SE,127,0.0,0.0,91,0.00,,,0.00,Wunderground v.1.15,2014-08-30 04:30:00,
2014-08-30 00:32:00,66.7,64.0,29.97,SE,127,0.0,2.0,91,0.00,,,0.00,Wunderground v.1.15,2014-08-30 04:32:00,
2014-08-30 00:36:00,66.7,64.0,29.97,SE,127,0.0,2.0,91,0.00,,,0.00,Wunderground v.1.15,2014-08-30 04:36:00,
2014-08-30 00:38:00,66.7,64.0,29.97,SE,127,0.0,2.0,91,0.00,,,0.00,Wunderground v.1.15,2014-08-30 04:38:00,
2014-08-30 00:42:00,66.7,64.0,29.97,SE,127,1.0,2.0,91,0.00,,,0.00,Wunderground v.1.15,2014-08-30 04:42:00,
2014-08-30 00:43:00,66.7,64.0,29.97,SE,127,0.0,3.0,91,0.00,,,0.00,weatherlink.com 1.10,2014-08-30 04:43:00,
2014-08-30 00:44:00,66.7,64.0,29.97,SE,127,1.0,2.0,91,0.00,,,0.00,Wunderground v.1.15,2014-08-30 04:44:00,
2014-08-30 00:46:00,66.7,64.0,29.97,SE,127,1.0,2.0,91,0.00,,,0.00,Wunderground v.1.15,2014-08-30 04:46:00,
2014-08-30 00:48:00,66.6,63.9,29.97,SE,127,1.0,2.0,91,0.00,,,0.00,Wunderground v.1.15,2014-08-30 04:48:00,
2014-08-30 00:50:00,66.6,63.9,29.97,SE,127,1.0,1.0,91,0.00,,,0.00,Wunderground v.1.15,2014-08-30 04:50:00,
2014-08-30 00:52:00,66.6,63.9,29.97,SE,127,1.0,3.0,91,0.00,,,0.00,Wunderground v.1.15,2014-08-30 04:52:00,
2014-08-30 00:54:00,66.7,64.0,29.97,SE,127,1.0,3.0,91,0.00,,,0.00,Wunderground v.1.15,2014-08-30 04:54:00,
2014-08-30 00:58:00,66.6,64.0,29.97,SE,127,0.0,4.0,91,0.00,,,0.00,weatherlink.com 1.10,2014-08-30 04:58:00,
2014-08-30 01:00:00,66.6,63.9,29.97,SE,127,1.0,1.0,91,0.00,,,0.00,Wunderground v.1.15,2014-08-30 05:00:00,
2014-08-30 01:02:00,66.6,64.2,29.96,SE,127,0.0,1.0,92,0.00,,,0.00,Wunderground v.1.15,2014-08-30 05:02:00,
2014-08-30 01:08:00,66.5,64.1,29.97,SE,127,0.0,1.0,92,0.00,,,0.00,Wunderground v.1.15,2014-08-30 05:08:00,
2014-08-30 01:10:00,66.5,64.1,29.97,SE,127,0.0,0.0,92,0.00,,,0.00,Wunderground v.1.15,2014-08-30 05:10:00,
2014-08-30 01:12:00,66.5,64.1,29.97,SE,127,0.0,1.0,92,0.00,,,0.00,Wunderground v.1.15,2014-08-30 05:12:00,
2014-08-30 01:13:00,66.5,64.0,29.97,SE,127,0.0,1.0,92,0.00,,,0.00,weatherlink.com 1.10,2014-08-30 05:13:00,
2014-08-30 01:16:00,66.5,64.1,29.97,SE,127,0.0,1.0,92,0.00,,,0.00,Wunderground v.1.15,2014-08-30 05:16:00,
2014-08-30 01:18:00,66.5,64.1,29.97,SE,127,0.0,1.0,92,0.00,,,0.00,Wunderground v.1.15,2014-08-30 05:18:00,
2014-08-30 01:24:00,66.4,64.0,29.97,SE,127,0.0,1.0,92,0.00,,,0.00,Wunderground v.1.15,2014-08-30 05:24:00,
2014-08-30 01:26:00,66.4,64.0,29.97,SE,127,0.0,1.0,92,0.00,,,0.00,Wunderground v.1.15,2014-08-30 05:26:00,
2014-08-30 01:30:00,66.4,64.0,29.96,SE,127,0.0,1.0,92,0.00,,,0.00,Wunderground v.1.15,2014-08-30 05:30:00,
2014-08-30 01:34:00,66.3,63.9,29.96,SE,127,0.0,1.0,92,0.00,,,0.00,Wunderground v.1.15,2014-08-30 05:34:00,
2014-08-30 01:36:00,66.3,63.9,29.96,SE,127,0.0,1.0,92,0.00,,,0.00,Wunderground v.1.15,2014-08-30 05:36:00,
2014-08-30 01:38:00,66.3,63.9,29.96,SE,127,0.0,1.0,92,0.00,,,0.00,Wunderground v.1.15,2014-08-30 05:38:00,
2014-08-30 01:40:00,66.3,63.9,29.96,SE,127,0.0,0.0,92,0.00,,,0.00,Wunderground v.1.15,2014-08-30 05:40:00,
2014-08-30 01:42:00,66.3,63.9,29.96,SE,127,0.0,0.0,92,0.00,,,0.00,Wunderground v.1.15,2014-08-30 05:42:00,
2014-08-30 01:46:00,66.2,63.8,29.96,SE,127,0.0,1.0,92,0.00,,,0.00,Wunderground v.1.15,2014-08-30 05:46:00,
2014-08-30 01:48:00,66.2,63.8,29.95,SE,127,0.0,1.0,92,0.00,,,0.00,Wunderground v.1.15,2014-08-30 05:48:00,
2014-08-30 01:50:00,66.1,63.7,29.95,SE,127,0.0,0.0,92,0.00,,,0.00,Wunderground v.1.15,2014-08-30 05:50:00,
2014-08-30 01:52:00,66.2,63.8,29.95,SE,127,0.0,3.0,92,0.00,,,0.00,Wunderground v.1.15,2014-08-30 05:52:00,
2014-08-30 01:54:00,66.1,64.0,29.95,SE,127,0.0,3.0,93,0.00,,,0.00,Wunderground v.1.15,2014-08-30 05:54:00,
2014-08-30 01:58:00,66.1,64.0,29.95,SE,127,0.0,3.0,93,0.00,,,0.00,Wunderground v.1.15,2014-08-30 05:58:00,
2014-08-30 02:00:00,66.2,64.1,29.95,SE,127,0.0,0.0,93,0.00,,,0.00,Wunderground v.1.15,2014-08-30 06:00:00,
2014-08-30 02:02:00,66.2,64.1,29.95,SE,127,0.0,0.0,93,0.00,,,0.00,Wunderground v.1.15,2014-08-30 06:02:00,
2014-08-30 02:04:00,66.1,64.0,29.94,SE,127,0.0,2.0,93,0.00,,,0.00,Wunderground v.1.15,2014-08-30 06:04:00,
2014-08-30 02:06:00,66.2,64.1,29.94,SE,127,1.0,2.0,93,0.00,,,0.00,Wunderground v.1.15,2014-08-30 06:06:00,
2014-08-30 02:10:00,66.2,64.1,29.94,SE,127,1.0,1.0,93,0.00,,,0.00,Wunderground v.1.15,2014-08-30 06:10:00,
2014-08-30 02:12:00,66.3,64.2,29.94,SE,127,1.0,1.0,93,0.00,,,0.00,Wunderground v.1.15,2014-08-30 06:12:00,
2014-08-30 02:14:00,66.3,64.0,29.94,SE,127,0.0,3.0,92,0.00,,,0.00,weatherlink.com 1.10,2014-08-30 06:14:00,
2014-08-30 02:18:00,66.3,63.9,29.94,SE,127,0.0,1.0,92,0.00,,,0.00,Wunderground v.1.15,2014-08-30 06:18:00,
2014-08-30 02:20:00,66.3,63.9,29.94,SE,127,0.0,0.0,92,0.00,,,0.00,Wunderground v.1.15,2014-08-30 06:20:00,
2014-08-30 02:26:00,66.3,63.9,29.94,SE,127,0.0,0.0,92,0.00,,,0.00,Wunderground v.1.15,2014-08-30 06:26:00,
2014-08-30 02:28:00,66.3,63.9,29.94,SE,127,0.0,0.0,92,0.00,,,0.00,Wunderground v.1.15,2014-08-30 06:28:00,
2014-08-30 02:29:00,66.4,64.0,29.94,SE,127,0.0,0.0,92,0.00,,,0.00,weatherlink.com 1.10,2014-08-30 06:29:00,
2014-08-30 02:34:00,66.5,64.1,29.94,SE,127,0.0,2.0,92,0.00,,,0.00,Wunderground v.1.15,2014-08-30 06:34:00,
2014-08-30 02:36:00,66.5,64.1,29.94,SE,127,0.0,2.0,92,0.00,,,0.00,Wunderground v.1.15,2014-08-30 06:36:00,
2014-08-30 02:38:00,66.5,64.1,29.94,SE,127,0.0,2.0,92,0.00,,,0.00,Wunderground v.1.15,2014-08-30 06:38:00,
2014-08-30 02:40:00,66.6,64.2,29.94,SE,127,0.0,1.0,92,0.00,,,0.00,Wunderground v.1.15,2014-08-30 06:40:00,
2014-08-30 02:42:00,66.7,64.3,29.94,SE,127,1.0,1.0,92,0.00,,,0.00,Wunderground v.1.15,2014-08-30 06:42:00,
2014-08-30 02:44:00,66.7,64.0,29.94,SE,127,1.0,1.0,91,0.00,,,0.00,Wunderground v.1.15,2014-08-30 06:44:00,
2014-08-30 02:48:00,66.8,64.1,29.93,SE,127,1.0,2.0,91,0.00,,,0.00,Wunderground v.1.15,2014-08-30 06:48:00,
2014-08-30 02:50:00,66.9,64.2,29.93,SE,127,1.0,1.0,91,0.00,,,0.00,Wunderground v.1.15,2014-08-30 06:50:00,
2014-08-30 02:54:00,67.0,64.3,29.93,SE,127,1.0,2.0,91,0.00,,,0.00,Wunderground v.1.15,2014-08-30 06:54:00,
2014-08-30 02:56:00,67.0,64.0,29.93,SE,127,0.0,2.0,90,0.00,,,0.00,Wunderground v.1.15,2014-08-30 06:56:00,
2014-08-30 03:00:00,67.0,64.0,29.93,SE,127,0.0,0.0,90,0.00,,,0.00,Wunderground v.1.15,2014-08-30 07:00:00,
2014-08-30 03:02:00,67.0,64.0,29.93,SE,127,0.0,1.0,90,0.00,,,0.00,Wunderground v.1.15,2014-08-30 07:02:00,
2014-08-30 03:06:00,67.0,64.0,29.93,SE,127,0.0,1.0,90,0.00,,,0.00,Wunderground v.1.15,2014-08-30 07:06:00,
2014-08-30 03:10:00,66.8,63.8,29.92,SE,127,0.0,1.0,90,0.00,,,0.00,Wunderground v.1.15,2014-08-30 07:10:00,
2014-08-30 03:14:00,66.8,63.8,29.92,SE,127,1.0,1.0,90,0.00,,,0.00,Wunderground v.1.15,2014-08-30 07:14:00,
2014-08-30 03:16:00,66.7,63.7,29.92,SE,127,1.0,1.0,90,0.00,,,0.00,Wunderground v.1.15,2014-08-30 07:16:00,
2014-08-30 03:20:00,66.7,63.7,29.92,SE,127,1.0,1.0,90,0.00,,,0.00,Wunderground v.1.15,2014-08-30 07:20:00,
2014-08-30 03:22:00,66.7,63.7,29.92,SE,127,1.0,1.0,90,0.00,,,0.00,Wunderground v.1.15,2014-08-30 07:22:00,
2014-08-30 03:24:00,66.6,63.6,29.92,SE,127,1.0,1.0,90,0.00,,,0.00,Wunderground v.1.15,2014-08-30 07:24:00,
2014-08-30 03:26:00,66.5,63.5,29.92,SE,127,1.0,1.0,90,0.00,,,0.00,Wunderground v.1.15,2014-08-30 07:26:00,
2014-08-30 03:30:00,66.5,63.8,29.92,SE,127,1.0,2.0,91,0.00,,,0.00,Wunderground v.1.15,2014-08-30 07:30:00,
2014-08-30 03:34:00,66.5,63.8,29.92,SE,127,1.0,2.0,91,0.00,,,0.00,Wunderground v.1.15,2014-08-30 07:34:00,
2014-08-30 03:36:00,66.5,63.8,29.92,SE,127,1.0,2.0,91,0.00,,,0.00,Wunderground v.1.15,2014-08-30 07:36:00,
2014-08-30 03:40:00,66.5,63.5,29.92,SE,133,1.0,2.0,90,0.00,,,0.00,Wunderground v.1.15,2014-08-30 07:40:00,
2014-08-30 03:42:00,66.6,63.6,29.92,SE,133,2.0,3.0,90,0.00,,,0.00,Wunderground v.1.15,2014-08-30 07:42:00,
2014-08-30 03:44:00,66.7,63.7,29.92,SE,134,2.0,3.0,90,0.00,,,0.00,Wunderground v.1.15,2014-08-30 07:44:00,
2014-08-30 03:46:00,66.7,63.7,29.92,SE,134,2.0,3.0,90,0.00,,,0.00,Wunderground v.1.15,2014-08-30 07:46:00,
2014-08-30 03:48:00,66.7,63.7,29.92,SE,134,2.0,3.0,90,0.00,,,0.00,Wunderground v.1.15,2014-08-30 07:48:00,
2014-08-30 03:52:00,66.8,63.8,29.92,SSE,156,2.0,3.0,90,0.00,,,0.00,Wunderground v.1.15,2014-08-30 07:52:00,
2014-08-30 03:54:00,66.8,63.8,29.92,SSE,156,2.0,4.0,90,0.00,,,0.00,Wunderground v.1.15,2014-08-30 07:54:00,
2014-08-30 03:56:00,66.8,63.8,29.92,SSE,156,2.0,4.0,90,0.00,,,0.00,Wunderground v.1.15,2014-08-30 07:56:00,
2014-08-30 04:02:00,66.9,63.9,29.92,SSE,157,2.0,3.0,90,0.00,,,0.00,Wunderground v.1.15,2014-08-30 08:02:00,
2014-08-30 04:04:00,66.9,63.9,29.92,SSE,157,2.0,3.0,90,0.00,,,0.00,Wunderground v.1.15,2014-08-30 08:04:00,
2014-08-30 04:06:00,67.0,64.0,29.92,SSE,157,2.0,3.0,90,0.00,,,0.00,Wunderground v.1.15,2014-08-30 08:06:00,
2014-08-30 04:08:00,66.9,63.9,29.92,SSE,157,2.0,3.0,90,0.00,,,0.00,Wunderground v.1.15,2014-08-30 08:08:00,
2014-08-30 04:10:00,66.9,63.9,29.92,SSE,157,2.0,2.0,90,0.00,,,0.00,Wunderground v.1.15,2014-08-30 08:10:00,
2014-08-30 04:12:00,67.0,63.6,29.92,SSE,157,2.0,2.0,89,0.00,,,0.00,Wunderground v.1.15,2014-08-30 08:12:00,
2014-08-30 04:14:00,67.0,63.6,29.92,SSE,157,2.0,3.0,89,0.00,,,0.00,Wunderground v.1.15,2014-08-30 08:14:00,
2014-08-30 04:16:00,66.9,63.6,29.92,SSE,157,2.0,3.0,89,0.00,,,0.00,Wunderground v.1.15,2014-08-30 08:16:00,
2014-08-30 04:18:00,66.9,63.6,29.92,SSE,157,2.0,3.0,89,0.00,,,0.00,Wunderground v.1.15,2014-08-30 08:18:00,
2014-08-30 04:22:00,66.9,63.6,29.92,SSE,157,1.0,1.0,89,0.00,,,0.00,Wunderground v.1.15,2014-08-30 08:22:00,
2014-08-30 04:24:00,66.9,63.9,29.92,SSE,157,1.0,1.0,90,0.00,,,0.00,Wunderground v.1.15,2014-08-30 08:24:00,
2014-08-30 04:29:00,66.8,64.0,29.92,SSE,157,2.0,3.0,90,0.00,,,0.00,weatherlink.com 1.10,2014-08-30 08:29:00,
2014-08-30 04:30:00,66.8,63.8,29.92,SSE,157,1.0,1.0,90,0.00,,,0.00,Wunderground v.1.15,2014-08-30 08:30:00,
2014-08-30 04:32:00,66.8,63.8,29.92,SSE,157,1.0,1.0,90,0.00,,,0.00,Wunderground v.1.15,2014-08-30 08:32:00,
2014-08-30 04:38:00,66.7,63.7,29.92,SSE,157,1.0,2.0,90,0.00,,,0.00,Wunderground v.1.15,2014-08-30 08:38:00,
2014-08-30 04:40:00,66.7,63.7,29.92,SSE,157,1.0,1.0,90,0.00,,,0.00,Wunderground v.1.15,2014-08-30 08:40:00,
2014-08-30 04:44:00,66.7,64.0,29.92,SSE,157,1.0,5.0,90,0.00,,,0.00,weatherlink.com 1.10,2014-08-30 08:44:00,
2014-08-30 04:46:00,66.8,63.8,29.92,SSE,157,1.0,1.0,90,0.00,,,0.00,Wunderground v.1.15,2014-08-30 08:46:00,
2014-08-30 04:48:00,66.8,63.8,29.92,SSE,157,1.0,1.0,90,0.00,,,0.00,Wunderground v.1.15,2014-08-30 08:48:00,
2014-08-30 04:52:00,66.8,63.8,29.92,SSE,157,1.0,5.0,90,0.00,,,0.00,Wunderground v.1.15,2014-08-30 08:52:00,
2014-08-30 04:54:00,66.8,63.8,29.92,SSE,157,1.0,5.0,90,0.00,,,0.00,Wunderground v.1.15,2014-08-30 08:54:00,
2014-08-30 04:56:00,66.8,63.8,29.92,SSE,157,1.0,5.0,90,0.00,,,0.00,Wunderground v.1.15,2014-08-30 08:56:00,
2014-08-30 04:58:00,66.8,63.8,29.92,SSE,157,1.0,5.0,90,0.00,,,0.00,Wunderground v.1.15,2014-08-30 08:58:00,
2014-08-30 05:00:00,66.8,63.8,29.91,SSE,157,2.0,2.0,90,0.00,,,0.00,Wunderground v.1.15,2014-08-30 09:00:00,
2014-08-30 05:04:00,66.8,63.8,29.91,SSE,157,2.0,2.0,90,0.00,,,0.00,Wunderground v.1.15,2014-08-30 09:04:00,
2014-08-30 05:06:00,66.8,63.8,29.91,SSE,157,2.0,2.0,90,0.00,,,0.00,Wunderground v.1.15,2014-08-30 09:06:00,
2014-08-30 05:10:00,66.8,63.8,29.91,SSE,157,2.0,2.0,90,0.00,,,0.00,Wunderground v.1.15,2014-08-30 09:10:00,
2014-08-30 05:12:00,66.8,63.8,29.91,SSE,157,2.0,2.0,90,0.00,,,0.00,Wunderground v.1.15,2014-08-30 09:12:00,
2014-08-30 05:14:00,66.8,63.8,29.91,SSE,157,1.0,2.0,90,0.00,,,0.00,Wunderground v.1.15,2014-08-30 09:14:00,
2014-08-30 05:18:00,66.7,63.7,29.91,SSE,157,1.0,2.0,90,0.00,,,0.00,Wunderground v.1.15,2014-08-30 09:18:00,
2014-08-30 05:20:00,66.7,63.7,29.91,SSE,157,1.0,1.0,90,0.00,,,0.00,Wunderground v.1.15,2014-08-30 09:20:00,
2014-08-30 05:22:00,66.7,63.7,29.91,SSE,157,1.0,1.0,90,0.00,,,0.00,Wunderground v.1.15,2014-08-30 09:22:00,
2014-08-30 05:24:00,66.7,63.7,29.91,SSE,157,1.0,1.0,90,0.00,,,0.00,Wunderground v.1.15,2014-08-30 09:24:00,
2014-08-30 05:26:00,66.7,63.7,29.91,SSE,157,1.0,1.0,90,0.00,,,0.00,Wunderground v.1.15,2014-08-30 09:26:00,
2014-08-30 05:28:00,66.7,63.7,29.91,SSE,157,1.0,2.0,90,0.00,,,0.00,Wunderground v.1.15,2014-08-30 09:28:00,
2014-08-30 05:30:00,66.6,63.6,29.91,SSE,157,1.0,2.0,90,0.00,,,0.00,Wunderground v.1.15,2014-08-30 09:30:00,
2014-08-30 05:34:00,66.6,63.6,29.91,SSE,157,1.0,2.0,90,0.00,,,0.00,Wunderground v.1.15,2014-08-30 09:34:00,
2014-08-30 05:36:00,66.6,63.6,29.91,SSE,157,1.0,2.0,90,0.00,,,0.00,Wunderground v.1.15,2014-08-30 09:36:00,
2014-08-30 05:38:00,66.5,63.5,29.91,SSE,157,1.0,2.0,90,0.00,,,0.00,Wunderground v.1.15,2014-08-30 09:38:00,
2014-08-30 05:40:00,66.5,63.5,29.91,SSE,157,1.0,1.0,90,0.00,,,0.00,Wunderground v.1.15,2014-08-30 09:40:00,
2014-08-30 05:44:00,66.5,63.5,29.91,SSE,157,1.0,1.0,90,0.00,,,0.00,Wunderground v.1.15,2014-08-30 09:44:00,
2014-08-30 05:46:00,66.5,63.5,29.91,SSE,157,1.0,1.0,90,0.00,,,0.00,Wunderground v.1.15,2014-08-30 09:46:00,